weather.gov     
National Weather Service

Regional Weather Roundup
NWS Homepage
This page is being discontinued on March 12, 2014.
The same data is available at this site. Please update your bookmarks.
Thank you, and we apologize for the inconvenience.
Please send an email to SR-SRH.Webmaster@noaa.gov with any concerns.


Current Version
Previous Version:    01  02  03  04  05  06  07  08  09  10  11  12  13  14  15  16  17  18  19  20  21  22  23  24  25  26  27  28  29  30  
   31  32  33  34  35  36  37  38  39  40  41  42  43  44  45  46  47  48  49  50  51  52  53  54  55  56  57  58  59  60  
[Printable]
127
ASUS44 KLIX 231205
RWRLA
LOUISIANA WEATHER ROUNDUP
NATIONAL WEATHER SERVICE NEW ORLEANS LA
700 AM CDT WED JUL 23 2014

NOTE: "FAIR" INDICATES FEW OR NO CLOUDS BELOW 12,000 FEET WITH NO
      SIGNIFICANT WEATHER AND/OR OBSTRUCTIONS TO VISIBILITY.
      SKY/WX - SKY CONDITION AND SIGNIFICANT WEATHER.
      TMP - AIR TEMPERATURE.    DP   - DEWPOINT TEMPERATURE.
      RH  - RELATIVE HUMIDITY.  PRES - PRESSURE.
      HX  - HEAT INDEX.         WCI  - WIND CHILL INDEX.

*  THESE STATIONS ARE NOT NWS OR FAA STATIONS AND ARE NOT UNDER
   NWS QUALITY CONTROL.

LAZ040-048-061>063-065-066-069-231300-
SOUTHEAST LOUISIANA

CITY           SKY/WX    TMP DP  RH WIND       PRES   REMARKS
N.O. AUDUBON     N/A     79  73  82 MISG        N/A
6HR MIN TEMP:  79; 6HR MAX TEMP:  81;

N.O. INTL ARPT MOCLDY    77  74  90 CALM      30.03S
6HR MIN TEMP:  76; 6HR MAX TEMP:  79;

N.O. LAKEFRONT CLEAR     78  74  87 E6        30.03S
6HR MIN TEMP:  77; 6HR MAX TEMP:  80;

N.O. DOWNTOWN* FAIR      79  70  73 CALM      30.03S
6HR MIN TEMP:  77; 6HR MAX TEMP:  81;

SLIDELL        CLEAR     71  68  90 N3        30.04R
6HR MIN TEMP:  70; 6HR MAX TEMP:  73;

BATON ROUGE    CLEAR     71  68  90 NE3       30.05R
6HR MIN TEMP:  70; 6HR MAX TEMP:  73;

BOOTHVILLE     MOCLDY    80  76  87 S3        30.03S
6HR MIN TEMP:  76; 6HR MAX TEMP:  80;

BELLE CHASSE   MOCLDY    76  72  87 CALM      30.02S
6HR MIN TEMP:  74; 6HR MAX TEMP:  77;

BOGALUSA*        N/A     69  67  90 CALM      30.08R FOG
6HR MIN TEMP:  69; 6HR MAX TEMP:  71; 6HR PCP:  0.01;

GALLIANO*      NOT AVBL
NEW ROADS*     FAIR      71  70  96 MISG      30.05S
6HR MIN TEMP:  70; 6HR MAX TEMP:  73; 6HR PCP:  0.01;

GONZALES*      FAIR      72  72 100 CALM      30.04S
6HR MIN TEMP:  72; 6HR MAX TEMP:  76;

HAMMOND*       CLEAR     70  68  94 CALM      30.06S
HOUMA*         PTCLDY    73  70  88 CALM      30.03R
PORT FOURCHON* MOSUNNY   79  75  89 VRB3      30.04S

$$

LAZ041-044-053-054-231300-
SOUTHWEST LOUISIANA

CITY           SKY/WX    TMP DP  RH WIND       PRES   REMARKS
LAKE CHARLES   CLEAR     75  72  90 N5        30.04S FOG
6HR MIN TEMP:  74; 6HR MAX TEMP:  76;

LAFAYETTE      CLEAR     74  71  91 NE5       30.05R
6HR MIN TEMP:  73; 6HR MAX TEMP:  76;

PATTERSON      CLEAR     75  73  94 NE7       30.07R
6HR MIN TEMP:  73; 6HR MAX TEMP:  77;

SALT POINT       N/A     78  75  90 N5        30.02R
6HR MIN TEMP:  78; 6HR MAX TEMP:  80;

NEW IBERIA     CLEAR     75  72  90 NE7       30.05R FOG
6HR MIN TEMP:  74; 6HR MAX TEMP:  78;

CHENAULT AIRPK NOT AVBL

$$

LAZ027-028-231300-
CENTRAL LOUISIANA

CITY           SKY/WX    TMP DP  RH WIND       PRES   REMARKS
FORT POLK      CLEAR     74  72  93 CALM      30.06S
6HR MIN TEMP:  72; 6HR MAX TEMP:  79;

ALEXANDRIA INT CLEAR     72  71  97 CALM      30.05R FOG
6HR MIN TEMP:  71; 6HR MAX TEMP:  75;

ALEXANDRIA     MOCLDY    72  70  93 CALM      30.07R FOG
6HR MIN TEMP:  71; 6HR MAX TEMP:  75;


$$

LAZ001-002-231300-
NORTHWEST LOUISIANA

CITY           SKY/WX    TMP DP  RH WIND       PRES   REMARKS
SHREVEPORT     CLEAR     72  70  93 CALM      30.07S
6HR MIN TEMP:  71; 6HR MAX TEMP:  76;

BARKSDALE AFB  CLEAR     71  71  99 CALM      30.07S
6HR MIN TEMP:  70; 6HR MAX TEMP:  74;

DTN SHREVEPORT CLEAR     71  69  93 CALM      30.07S
6HR MIN TEMP:  70; 6HR MAX TEMP:  75;


$$

LAZ014-016-231300-
NORTHEAST LOUISIANA

CITY           SKY/WX    TMP DP  RH WIND       PRES   REMARKS
MONROE         CLEAR     73  71  93 CALM      30.07S FOG
6HR MIN TEMP:  71; 6HR MAX TEMP:  74; 6HR PCP:  0.01;

TALLULAH       PTCLDY    72  71  97 CALM      30.07R FOG
6HR MIN TEMP:  70; 6HR MAX TEMP:  75;


$$





U.S. Dept. of Commerce
NOAA National Weather Service
1325 East West Highway
Silver Spring, MD 20910
E-mail: w-nws.webmaster@noaa.gov
Page last modified: May 16, 2007
NATIONAL WEATHER SERVICE: for Safety, for Work, for Fun - FOR LIFE